Regional Weather Roundup
Issued by NWS

Home | Current Version | Previous Version | Text Only | Print | Product List | Glossary On
Versions: 1 2 3 4 5 6 7 8 9 10 11 12 13 14 15 16 17 18 19 20 21 22 23 24 25 26 27
000
ASUS42 KKEY 250810
RWRKEY

FLORIDA REGIONAL WEATHER ROUNDUP FOR THE FLORIDA KEYS
NATIONAL WEATHER SERVICE KEY WEST FLORIDA
400 AM EDT FRI APR 25 2014

...SOUTH FLORIDA AND THE KEYS...

CITY           SKY/WX    TMP DP  RH WIND       PRES   REMARKS
FORT MYERS     CLEAR     66  65  96 CALM      29.95S
SW REGIONAL AP CLEAR     64  62  93 CALM      29.96S FOG
NAPLES         PTCLDY    68  66  93 E3        29.95S
MIAMI          PTCLDY    73  67  81 NW3       29.95F
WEST KENDALL   PTCLDY    69  66  90 CALM      29.95F
HOMESTEAD      CLEAR     71  63  76 NW5       29.94F
MARATHON       CLEAR     74  69  85 CALM      29.93F
BOCA CHICA NAS CLEAR     74  69  85 E6        29.93F
KEY WEST INTL  CLEAR     77  69  76 E6        29.94F

...INTERNATIONAL WEATHER...

CITY           SKY/WX    TMP DP  RH WIND       PRES   REMARKS
NASSAU BAHAMAS PTCLDY    77  70  78 SE3       29.96F
CANCUN MEXICO  CLEAR     77  72  83 SE6       29.90F
COZUMEL MEXICO CLEAR     68  68 100 CALM      29.91F

ADJACENT COASTAL WATERS...

STATION/POSITION TIME  SKY/WX   TEMP    WIND        PRES    WAVE
                                AIR SEA DIR/SP/G            HT/PER
                 (UTC)          (F)     (DEG/KT/KT) (MB)    (FT/S)
PULASKI SHOAL LI NOT AVBL
SAND KEY         NOT AVBL
SOMBRERO KEY     0800            77     100/  4/  4 1014.3F
LONG KEY         0800            78 82  140/  3/  4 1014.4F
MOLASSES REEF    0800            77 79   50/  2/  2 1013.7F
FOWEY ROCKS      0800            76 78  310/  6/  6 1014.1F
Buoy 42080       NOT AVBL

$$



USA.gov is the U.S. government's official web portal to all federal, state and local government web resources and services.